Temperature
6 5 5 5 6 6 6 6 6 6 7 7 7 7 6 7 6 6 6 6 7 7 8 8 9 9 9 10 10 10 10 10 10 11 11 11 11 11 11 11 11 11 11 11
4 5 5 6 6 6 6 6 6 6 7 7 6 6 6 6 6 6 6 6 7 7 7 8 8 9 9 9 9 10 10 10 10 10 10 10 10 10 10 10 10 10 10 10
5 5 6 6 6 6 6 6 6 6 6 6 6 7 6 6 6 6 6 6 6 7 7 7 8 8 8 9 9 9 9 9 9 10 10 10 10 10 10 10 10 10 10 10
4 5 6 6 6 6 6 6 6 6 6 5 6 6 6 5 5 5 5 6 6 6 7 7 8 8 8 8 8 8 9 9 9 9 9 9 9 9 9 9 9 9 9 9
4 4 5 5 6 6 5 5 6 5 5 5 5 5 5 4 5 5 5 5 6 7 7 7 7 8 8 8 8 8 8 8 8 9 9 9 9 9 9 9 9 9 9 9
4 4 4 5 5 5 5 5 5 4 4 5 5 5 5 4 5 5 5 5 6 6 7 7 7 7 7 8 8 8 8 8 8 8 8 8 8 8 8 8 9 9 9 9
4 4 4 5 5 5 4 4 4 4 4 4 4 4 4 5 4 4 4 5 6 6 6 7 7 7 7 7 7 7 7 8 8 8 8 8 8 8 8 8 8 8 8 8
3 3 4 4 4 4 4 4 4 5 4 4 4 4 4 4 4 4 5 5 5 5 6 6 6 7 7 7 7 7 7 7 7 7 7 7 7 7 7 7 7 8 8 8
3 3 4 4 4 4 4 3 4 3 3 3 3 3 3 3 3 3 3 4 4 5 5 6 6 6 6 6 7 7 7 7 7 7 7 7 7 7 7 7 7 7 7 7
3 2 3 3 4 4 4 3 2 3 3 4 4 3 3 3 3 2 2 2 3 4 5 5 6 6 6 6 6 6 6 6 6 6 6 6 6 6 6 6 6 7 7 7
2 2 2 2 3 3 3 3 2 2 2 3 4 4 3 2 2 2 2 2 3 3 4 5 5 5 5 5 5 5 6 6 6 6 6 6 6 6 6 6 6 6 6 6
1 1 1 2 2 2 3 2 2 3 2 1 2 3 3 2 2 2 2 2 3 3 4 4 4 5 5 5 5 5 5 5 5 5 5 5 5 5 6 6 6 6 6 6
1 1 2 3 2 2 2 2 1 1 1 1 2 3 2 1 1 1 2 2 2 3 3 3 4 4 4 4 4 4 4 5 5 5 5 5 5 5 5 5 5 5 5 5
2 -0 1 2 2 1 1 1 1 1 1 1 1 2 2 1 1 1 1 2 2 2 2 3 3 3 3 3 3 4 4 4 4 4 4 4 4 4 4 4 4 5 5 5
1 -0 -0 0 1 1 1 1 1 1 1 1 2 1 2 1 0 0 0 1 1 1 2 2 2 2 3 3 3 3 3 3 3 4 4 4 4 4 4 4 4 4 4 4
-0 -0 -0 -0 0 0 0 0 0 1 1 1 1 1 1 1 1 0 0 0 0 1 1 1 2 2 2 2 2 3 3 3 3 3 3 3 3 3 3 3 3 3 3 4
-1 -0 -0 -0 -1 1 0 -0 -0 -0 -0 0 1 1 0 -0 -0 -0 -0 -0 0 0 1 1 1 1 2 2 2 2 2 2 2 3 3 3 3 3 3 3 3 3 3 3
-1 -1 -2 -1 -0 1 1 0 -0 -0 -1 -1 -0 -0 -0 -1 -0 0 0 0 0 0 0 1 1 1 1 1 2 2 2 2 2 2 2 2 2 2 2 2 2 2 2 2
-2 -1 -2 -2 -1 -1 0 -0 -1 -1 -0 -1 -1 -1 -1 -1 -1 -0 0 0 0 0 0 0 1 1 1 1 1 1 1 1 1 2 2 2 2 2 2 2 2 2 2 2
-2 -2 -2 -2 -1 0 1 -0 -1 -0 -0 -1 -1 -1 -2 -2 -2 -1 -0 -0 -0 -0 0 0 0 0 0 1 1 1 1 1 1 1 1 1 1 1 1 1 1 1 1 1
-3 -3 -3 -3 -2 -1 -1 -1 -0 0 0 -0 -1 -1 -2 -2 -1 -1 -1 -1 -1 -0 -0 -0 -0 -0 -0 -0 0 0 0 0 0 0 0 1 1 1 1 1 1 1 1 1
-3 -3 -3 -3 -2 -1 -1 -2 -1 -1 -0 -1 -1 -1 -1 -1 -1 -1 -1 -1 -1 -1 -1 -1 -1 -1 -1 -0 -0 -0 -0 -0 -0 -0 -0 0 0 0 0 0 0 0 0 0
-4 -3 -3 -3 -1 -1 -1 -1 -1 -1 -1 -1 -1 -1 -2 -2 -2 -1 -1 -1 -1 -1 -1 -1 -1 -1 -1 -1 -1 -1 -1 -1 -1 -1 -1 -0 -0 -0 -0 -0 -0 -0 -0 -0
-4 -4 -4 -4 -3 -2 -2 -1 -1 -1 -1 -1 -1 -2 -2 -2 -2 -2 -2 -2 -2 -2 -2 -2 -2 -2 -1 -1 -1 -1 -1 -1 -1 -1 -1 -1 -1 -1 -1 -1 -1 -1 -1 -1
-4 -5 -4 -4 -4 -3 -2 -1 -1 -1 -1 -2 -2 -2 -2 -2 -2 -2 -2 -2 -2 -2 -2 -2 -2 -2 -2 -2 -2 -2 -2 -2 -2 -2 -2 -2 -2 -2 -2 -2 -2 -2 -2 -2
-4 -4 -4 -3 -2 -3 -2 -1 -1 -2 -2 -2 -2 -2 -2 -2 -2 -2 -2 -3 -3 -3 -3 -3 -3 -3 -3 -3 -3 -3 -3 -2 -2 -2 -2 -2 -2 -2 -2 -2 -2 -2 -2 -2
Wind_Speed
3 3 0 2 2 3 2 1 2 3 2 0 3 3 2 1 2 2 2 2 2 2 0 1 2 2 3 3 3 3 3 3 3 2 2 2 1 1 2 3 3 4 4 3
4 1 3 1 0 0 1 1 2 2 2 0 1 2 2 1 3 3 4 4 3 1 0 1 1 2 2 2 2 2 2 2 2 1 1 1 1 0 1 2 3 3 3 3
0 2 1 1 1 2 2 3 3 2 3 2 1 2 2 1 1 1 1 2 3 3 2 1 1 0 1 1 1 1 1 2 2 2 3 3 2 2 1 2 1 2 2 3
2 3 2 2 1 1 2 1 1 1 1 2 1 2 4 2 2 2 3 2 3 3 3 2 2 1 1 1 1 1 2 2 2 3 3 4 2 1 1 1 0 1 2 3
2 3 2 1 1 0 0 2 0 0 1 1 1 2 5 0 3 5 5 4 4 3 4 4 3 2 1 0 1 1 2 2 2 2 2 3 2 1 1 1 1 1 2 3
2 2 1 1 2 1 1 3 3 3 3 1 3 3 5 3 5 4 4 4 4 3 3 2 1 1 1 2 2 2 2 2 1 2 2 2 2 2 2 2 1 0 0 1
5 4 4 2 3 3 4 3 3 3 2 4 1 2 6 4 3 3 4 4 3 3 2 1 1 1 1 1 1 1 2 1 1 1 1 1 1 2 2 1 1 0 0 0
2 4 3 3 1 0 1 2 3 2 3 3 0 4 5 3 2 1 1 1 0 1 1 1 1 1 1 1 1 1 1 0 0 0 0 1 1 1 1 1 1 1 1 1
1 3 3 2 1 2 2 1 1 2 1 1 3 4 5 3 4 3 2 2 2 1 0 0 1 1 1 0 1 1 1 0 0 0 0 0 0 0 1 1 1 1 0 0
2 2 4 3 2 3 2 3 3 2 1 2 4 3 3 4 3 3 3 2 2 2 2 2 1 0 1 0 0 0 0 1 0 0 0 0 0 1 1 0 1 0 0 0
1 1 4 3 1 1 2 2 2 2 2 2 2 5 2 3 2 2 2 2 2 2 1 2 2 1 1 1 1 1 1 1 1 0 0 0 0 0 0 0 1 1 0 0
1 2 2 4 3 1 2 2 3 2 2 2 2 5 2 2 2 1 2 2 2 2 1 1 2 2 2 2 2 1 1 1 1 1 0 0 1 0 0 1 1 0 1 1
2 3 2 4 3 2 1 1 2 2 2 2 3 5 2 4 4 3 2 2 1 1 2 2 2 2 2 2 2 2 1 1 1 1 1 1 1 1 1 1 1 1 1 1
3 2 4 6 4 2 2 2 3 3 2 3 6 8 7 5 5 5 4 3 1 1 1 2 2 2 2 2 2 2 2 2 1 1 0 1 1 1 1 1 1 0 1 1
3 1 2 4 4 2 4 5 4 6 6 6 7 7 10 6 4 4 3 3 3 2 2 2 2 2 3 3 3 3 2 2 1 1 1 2 2 1 1 1 1 0 0 0
2 2 0 2 2 2 5 6 6 6 6 7 8 9 8 4 2 2 3 2 3 3 3 3 3 3 3 3 3 3 3 2 1 1 1 1 1 1 1 1 1 0 0 0
1 2 0 3 4 2 5 6 6 4 5 5 7 8 4 3 3 3 3 3 3 4 3 3 3 3 4 4 3 3 3 2 1 1 1 1 1 1 1 1 1 0 0 1
3 3 2 1 3 4 6 1 4 5 5 6 5 5 4 4 4 3 2 2 3 4 4 4 4 4 4 4 3 3 2 1 1 1 1 1 1 1 1 1 1 1 1 1
3 4 3 1 2 7 7 2 2 3 5 4 6 6 4 3 2 3 2 1 2 3 3 3 3 3 4 4 3 2 2 2 2 2 2 2 2 2 1 1 2 1 1 1
2 3 3 3 2 5 5 1 1 1 4 3 3 4 3 0 1 4 2 2 2 2 2 2 2 3 3 4 2 1 1 2 3 3 3 2 2 2 2 2 2 2 1 1
1 1 3 4 4 7 5 2 2 3 5 3 2 3 2 3 4 3 2 2 2 2 2 2 2 2 3 3 2 1 2 3 4 3 3 2 2 2 2 2 1 1 1 1
5 4 4 4 4 8 2 3 5 5 2 2 2 2 2 3 3 2 2 2 2 2 3 2 2 3 3 3 2 2 3 4 3 2 2 2 2 2 2 1 1 1 0 1
6 7 5 7 7 4 3 4 3 1 2 2 2 2 2 2 2 2 2 2 2 2 2 2 2 3 3 3 2 3 4 3 2 2 3 3 3 2 2 1 1 1 1 1
4 3 3 5 7 5 4 4 3 2 3 3 2 2 1 2 2 2 2 2 2 2 2 2 2 3 4 4 3 3 4 3 2 2 3 3 3 3 2 2 1 1 2 2
6 5 4 6 6 4 4 5 4 3 2 2 2 2 2 2 2 2 2 2 2 2 2 2 2 3 4 4 4 3 3 3 2 3 3 3 3 2 3 2 2 2 2 3
5 7 6 7 5 5 5 4 3 3 3 3 2 1 1 1 2 2 2 2 2 2 2 2 3 3 4 4 4 4 3 2 2 3 3 2 2 2 2 2 3 4 3 5
Wind_Direction
17 68 351 248 214 198 179 180 255 257 266 163 203 221 270 233 170 176 171 164 183 220 286 69 66 54 58 62 70 78 74 80 91 89 91 91 69 49 60 47 59 78 80 87
40 4 281 301 58 117 171 202 274 306 346 185 188 255 272 222 198 189 193 200 199 208 35 78 69 53 59 81 85 84 78 74 89 101 119 110 115 84 69 42 40 55 76 84
97 291 324 78 15 18 303 211 223 275 347 22 75 303 252 265 193 185 207 205 208 194 197 200 149 116 70 88 118 113 93 74 55 60 81 78 67 39 31 31 8 11 52 79
353 330 25 59 2 13 294 276 198 254 73 317 76 250 261 249 268 259 248 237 238 221 210 206 194 191 201 209 107 100 95 83 68 79 95 107 108 117 271 252 266 13 47 54
325 357 31 43 314 11 276 351 344 176 131 1 25 183 274 283 261 263 251 242 240 229 215 212 207 203 206 129 104 93 82 77 78 83 97 111 102 87 20 28 67 51 34 48
310 336 355 315 355 80 37 34 41 52 79 266 223 177 273 234 239 262 254 243 232 223 222 222 209 133 82 68 76 77 81 65 67 89 89 98 113 92 69 30 33 67 35 34
352 349 357 16 40 29 47 68 35 12 11 255 181 193 253 259 243 229 241 244 226 204 195 191 159 132 101 90 93 90 96 61 50 89 102 112 135 137 139 181 227 178 43 353
19 323 335 6 60 189 306 115 147 196 223 284 298 230 258 287 295 277 273 295 71 153 161 174 189 178 156 140 116 111 148 247 14 98 130 138 122 149 181 215 197 205 220 222
120 286 330 336 342 125 91 97 146 129 82 288 268 285 305 353 0 12 27 36 19 348 0 58 57 67 94 127 200 202 191 238 257 229 195 106 118 147 218 244 205 203 252 12
153 264 314 322 24 29 90 133 95 108 149 275 288 281 277 306 315 339 351 341 332 355 10 13 35 47 16 340 304 20 156 204 274 303 218 254 237 241 243 222 194 200 299 37
115 154 321 4 63 221 55 69 86 110 156 176 256 273 258 259 264 255 271 290 315 334 345 359 354 359 27 31 35 27 28 27 8 338 274 308 281 304 79 198 216 210 210 191
115 124 284 272 263 206 154 161 147 155 231 191 209 268 303 288 296 274 277 292 332 350 6 19 20 25 27 16 8 5 6 359 325 309 355 348 338 27 66 264 245 213 193 255
134 111 10 350 349 10 58 185 174 138 128 175 204 260 344 17 6 354 333 316 331 357 9 24 31 21 5 352 343 339 334 323 337 355 22 22 7 358 329 295 258 223 190 211
119 132 186 212 239 214 259 245 192 162 191 230 235 257 294 325 336 335 331 326 325 343 358 13 4 351 342 341 339 328 315 323 336 352 19 312 287 289 297 302 269 238 193 180
104 190 229 261 277 253 259 263 219 206 211 222 251 255 274 283 284 294 310 332 357 357 355 345 333 329 335 341 337 327 320 328 330 339 301 278 285 290 310 331 316 9 53 274
91 179 234 295 285 264 278 277 246 235 233 239 262 273 276 282 283 293 305 323 331 327 325 326 328 327 324 324 320 317 313 311 318 309 294 311 315 317 318 319 333 37 24 359
160 149 113 286 315 342 284 255 217 214 221 206 234 253 280 299 287 277 286 298 293 294 307 315 315 309 307 305 300 294 299 307 310 299 309 311 315 302 290 318 333 285 294 331
168 143 148 298 19 253 251 233 193 209 246 230 243 268 266 265 277 270 260 255 278 291 301 306 309 314 316 313 309 304 308 310 309 322 325 314 325 300 293 310 299 281 297 284
183 154 141 149 253 279 290 269 180 202 274 249 243 268 284 293 328 311 288 258 256 272 290 293 301 310 316 315 312 321 331 332 329 315 307 306 299 291 293 294 292 280 279 278
80 115 139 154 208 254 266 282 239 118 291 277 231 253 267 85 297 285 311 322 313 316 319 321 329 336 334 326 327 349 334 333 312 303 301 303 299 285 278 277 281 280 262 271
103 103 178 197 231 264 266 267 127 170 261 302 246 242 216 215 239 286 326 329 319 322 327 343 349 343 330 332 354 351 332 314 307 313 317 316 309 294 278 280 284 273 265 292
183 179 193 177 212 255 225 143 185 224 284 296 286 263 226 252 290 314 323 327 337 343 347 356 352 339 340 352 359 334 317 311 319 326 326 322 319 310 316 305 293 283 234 277
205 198 195 199 219 252 190 202 232 228 244 262 267 285 253 264 283 300 312 321 325 324 334 344 340 332 340 347 346 323 316 321 324 331 326 321 323 317 311 284 276 272 258 266
246 196 201 249 260 259 254 258 264 248 245 267 271 273 241 252 273 284 296 311 320 325 331 340 344 330 325 329 330 317 319 323 324 322 319 318 323 323 317 301 282 263 253 262
223 184 207 249 270 294 270 242 246 257 265 281 293 264 231 239 269 270 287 299 302 313 325 332 318 305 305 317 323 325 329 334 331 322 318 319 319 312 309 303 288 281 262 265
201 188 196 231 223 219 255 249 222 230 245 249 259 278 294 241 255 273 282 285 293 307 319 322 313 305 307 316 320 325 329 334 329 323 319 316 315 311 307 306 318 318 302 302
Height
1486 1490 1492 1491 1490 1491 1492 1495 1496 1494 1491 1492 1493 1494 1494 1493 1493 1494 1495 1496 1497 1498 1499 1500 1501 1502 1503 1504 1505 1506 1507 1508 1509 1510 1511 1512 1513 1514 1516 1516 1516 1517 1518 1519
1492 1493 1491 1490 1490 1490 1491 1494 1496 1494 1491 1492 1494 1495 1493 1493 1493 1493 1494 1495 1496 1497 1498 1499 1500 1501 1502 1503 1504 1505 1506 1507 1508 1509 1510 1510 1512 1513 1514 1515 1515 1516 1517 1517
1494 1494 1491 1491 1491 1492 1492 1494 1495 1496 1493 1493 1494 1495 1494 1493 1492 1493 1493 1494 1495 1496 1496 1497 1498 1500 1501 1501 1502 1504 1505 1506 1507 1508 1508 1509 1510 1511 1512 1513 1514 1514 1515 1516
1495 1493 1492 1492 1493 1493 1494 1492 1493 1494 1497 1500 1498 1502 1495 1494 1493 1492 1492 1493 1493 1494 1495 1496 1497 1498 1499 1500 1501 1502 1503 1504 1505 1506 1506 1507 1508 1509 1509 1511 1512 1513 1513 1514
1497 1495 1494 1494 1494 1494 1496 1494 1494 1495 1499 1503 1502 1504 1498 1495 1494 1492 1491 1491 1492 1493 1494 1495 1496 1497 1498 1499 1500 1501 1502 1503 1504 1504 1505 1506 1507 1507 1508 1509 1510 1511 1512 1512
1498 1497 1497 1496 1495 1495 1496 1496 1496 1499 1502 1506 1502 1505 1501 1497 1493 1490 1489 1489 1490 1491 1492 1493 1494 1496 1497 1498 1499 1500 1500 1501 1502 1503 1503 1504 1505 1506 1507 1507 1508 1509 1509 1510
1501 1499 1498 1497 1498 1498 1499 1502 1506 1507 1510 1507 1503 1503 1500 1491 1490 1489 1488 1488 1488 1489 1490 1491 1492 1493 1494 1496 1497 1498 1499 1499 1500 1501 1502 1502 1504 1505 1505 1505 1506 1507 1507 1507
1508 1506 1501 1499 1500 1501 1502 1503 1509 1510 1511 1509 1505 1504 1496 1490 1488 1488 1487 1487 1487 1488 1489 1490 1491 1492 1493 1494 1495 1496 1497 1498 1499 1499 1500 1501 1502 1503 1503 1504 1504 1505 1505 1505
1510 1508 1502 1501 1500 1501 1502 1506 1507 1513 1515 1514 1508 1505 1495 1489 1488 1487 1487 1487 1487 1487 1488 1489 1490 1491 1492 1492 1493 1494 1495 1496 1497 1497 1498 1499 1500 1501 1502 1502 1502 1503 1503 1504
1508 1510 1505 1503 1501 1502 1503 1506 1510 1513 1513 1511 1506 1504 1500 1492 1491 1489 1488 1487 1486 1487 1487 1488 1489 1490 1491 1492 1492 1493 1494 1494 1495 1496 1497 1497 1498 1499 1499 1500 1500 1501 1501 1501
1507 1512 1510 1507 1506 1507 1507 1508 1510 1514 1514 1514 1511 1503 1495 1493 1491 1490 1489 1488 1488 1487 1487 1488 1488 1489 1490 1490 1491 1491 1492 1492 1493 1494 1495 1495 1496 1496 1497 1497 1498 1498 1498 1499
1509 1513 1515 1511 1507 1506 1506 1508 1510 1513 1515 1518 1514 1506 1493 1492 1490 1489 1489 1488 1488 1487 1487 1488 1488 1488 1489 1489 1489 1489 1490 1490 1491 1492 1493 1493 1494 1494 1495 1495 1496 1496 1496 1496
1509 1514 1515 1510 1511 1509 1509 1508 1510 1512 1516 1519 1514 1504 1492 1491 1490 1490 1489 1488 1487 1487 1487 1487 1487 1487 1487 1487 1488 1488 1488 1489 1490 1490 1490 1491 1492 1492 1492 1493 1493 1493 1494 1494
1507 1514 1515 1512 1507 1509 1510 1508 1509 1510 1513 1512 1507 1500 1493 1492 1492 1490 1489 1488 1487 1487 1487 1486 1486 1486 1486 1486 1486 1487 1487 1487 1488 1488 1489 1489 1490 1490 1490 1491 1490 1490 1491 1491
1507 1514 1514 1511 1509 1509 1508 1506 1506 1507 1506 1507 1500 1498 1492 1492 1492 1491 1489 1488 1487 1486 1486 1486 1485 1485 1485 1485 1485 1485 1485 1485 1486 1486 1487 1487 1488 1488 1488 1488 1488 1488 1488 1488
1509 1512 1513 1511 1509 1509 1507 1504 1505 1504 1503 1502 1500 1496 1490 1490 1491 1490 1488 1487 1486 1486 1485 1485 1485 1484 1484 1484 1483 1483 1483 1484 1484 1484 1484 1484 1485 1485 1485 1486 1485 1485 1485 1485
1510 1511 1513 1512 1511 1506 1506 1501 1501 1501 1499 1498 1497 1492 1490 1490 1489 1488 1487 1486 1485 1485 1485 1484 1484 1483 1483 1482 1482 1482 1482 1482 1482 1482 1482 1483 1483 1482 1483 1483 1483 1483 1483 1483
1509 1512 1516 1516 1513 1510 1498 1495 1495 1496 1495 1494 1492 1490 1489 1488 1487 1486 1486 1485 1484 1484 1483 1483 1482 1482 1481 1481 1480 1480 1480 1480 1480 1480 1479 1480 1479 1480 1480 1480 1480 1480 1480 1480
1506 1510 1516 1519 1517 1508 1497 1494 1495 1495 1493 1490 1489 1488 1487 1487 1486 1485 1484 1484 1484 1483 1483 1482 1482 1481 1480 1480 1479 1478 1478 1477 1477 1477 1477 1477 1477 1477 1477 1477 1477 1478 1478 1478
1508 1509 1516 1518 1513 1505 1494 1493 1492 1494 1493 1487 1487 1486 1486 1486 1488 1485 1483 1483 1482 1482 1482 1481 1480 1480 1479 1478 1477 1477 1476 1476 1475 1475 1475 1474 1474 1475 1475 1475 1475 1475 1475 1475
1512 1514 1516 1516 1513 1502 1494 1492 1492 1496 1491 1486 1484 1484 1485 1485 1485 1484 1482 1481 1481 1481 1480 1480 1479 1478 1477 1477 1476 1475 1474 1474 1474 1473 1472 1472 1472 1472 1472 1473 1473 1472 1472 1471
1508 1511 1514 1514 1511 1501 1491 1491 1492 1489 1485 1484 1483 1483 1482 1482 1482 1481 1481 1480 1479 1479 1478 1478 1477 1476 1476 1475 1475 1474 1473 1472 1471 1471 1470 1470 1470 1470 1470 1469 1469 1469 1469 1468
1503 1501 1501 1501 1495 1488 1486 1485 1485 1484 1483 1483 1482 1481 1481 1480 1480 1480 1479 1478 1478 1477 1477 1476 1476 1475 1475 1474 1473 1472 1471 1470 1470 1469 1468 1467 1467 1467 1467 1467 1466 1466 1466 1466
1497 1495 1496 1495 1487 1484 1484 1483 1483 1482 1482 1481 1480 1480 1479 1479 1478 1478 1477 1477 1476 1476 1475 1475 1474 1473 1473 1472 1471 1470 1470 1469 1468 1467 1466 1465 1464 1464 1465 1464 1464 1463 1463 1463
1490 1491 1492 1489 1484 1482 1480 1480 1480 1480 1479 1479 1478 1478 1477 1477 1476 1476 1475 1475 1475 1474 1473 1473 1472 1471 1471 1470 1469 1468 1467 1466 1465 1464 1464 1463 1463 1462 1462 1461 1461 1460 1460 1460
1483 1484 1485 1481 1478 1479 1477 1476 1477 1477 1476 1476 1476 1475 1475 1475 1474 1474 1474 1473 1473 1472 1471 1471 1470 1469 1468 1468 1467 1466 1465 1464 1463 1462 1461 1461 1460 1460 1459 1458 1458 1458 1458 1457